Location: Tr�vern
(48.0333°N, 4.6000°W)
Time: 02:54:24
(UTC+00:00)

CZ-4C R/B - Pass Details

Date: 14 July 2020
Orbit: 463 x 636 km, 98.0° (Epoch: 04 August)

Event Time Altitude Azimuth Distance (km) Brightness Sun altitude
Exits shadow 02:47:06 21° 234° (SW) 1,218 4.5 -13.4°
Maximum altitude 02:48:19 25° 264° (W) 1,081 4.5 -13.2°
Drops below altitude 10° 02:51:26 10° 321° (NW) 1,720 6.0 -12.9°
Sets 02:53:45 0° 335° (NNW) 2,583 7.2 -12.7°
